Regional Weather Roundup
Issued by NWS

Home | Current Version | Previous Version | Text Only | Print | Product List | Glossary On
Versions: 1 2 3 4 5 6 7 8 9 10 11 12 13 14 15 16 17 18 19 20 21 22 23 24 25 26 27 28 29 30 31 32 33 34 35 36 37 38 39 40 41 42 43 44 45 46 47 48 49 50
000
ASUS43 KFSD 241410
RWRSD

WEATHER ROUNDUP FOR SOUTH DAKOTA
NATIONAL WEATHER SERVICE SIOUX FALLS SD
900 AM CDT SAT JUN 24 2017

NOTE: "FAIR" INDICATES FEW OR NO CLOUDS BELOW 12,000 FEET WITH NO
SIGNIFICANT WEATHER AND/OR OBSTRUCTIONS TO VISIBILITY.


SDZ001>005-009-010-012>017-241500-
NORTHWEST AND NORTH CENTRAL SOUTH DAKOTA

CITY           SKY/WX    TMP DP  RH WIND       PRES   REMARKS
BUFFALO          N/A     57  33  40 N17       30.19R
FAITH            N/A     56  36  47 N15       30.22R
MOBRIDGE       SUNNY     57  38  48 NW14      30.14R
$$

SDZ012>016-024>037-041>051-057-063-072>074-241500-
SOUTHWEST AND SOUTH CENTRAL SOUTH DAKOTA

CITY           SKY/WX    TMP DP  RH WIND       PRES   REMARKS
RAPID CTY ARPT SUNNY     65  30  27 NW12      30.26R
PIERRE         SUNNY     59  38  45 NW20      30.18R
CUSTER         CLOUDY    49  28  44 W6        30.33R
ELLSWORTH AFB  SUNNY     64  30  28 NW15G23   30.26R
PHILIP         SUNNY     66  34  30 NW12      30.22R
PINE RIDGE     CLOUDY    55  39  54 SW5       30.29R
WINNER         FAIR      65  34  31 NW16      30.19R
$$

SDZ004>011-016>023-039-040-241500-
NORTHEAST SOUTH DAKOTA

CITY           SKY/WX    TMP DP  RH WIND       PRES   REMARKS
ABERDEEN       CLOUDY    55  44  66 NW10      30.10R
WATERTOWN      CLOUDY    54  42  64 W14       30.07S
BROOKINGS      PTSUNNY   56  44  64 W8        30.10S
SISSETON         N/A     55  47  74 NW20      30.05R
$$

SDZ017-020-022-023-036>040-048>070-241500-
SOUTHEAST SOUTH DAKOTA

CITY           SKY/WX    TMP DP  RH WIND       PRES   REMARKS
SIOUX FALLS    MOSUNNY   62  44  51 W10       30.12R
HURON          PTSUNNY   63  43  48 W16       30.10F
CHAMBERLAIN    SUNNY     59  40  50 W10       30.17S
MITCHELL       SUNNY     63  41  44 W13G21    30.13F
YANKTON        SUNNY     62  41  46 W10       30.16R
$$

ABBREVIATIONS USED IN REMARKS
   TC - TEMPERATURE IN CELSIUS
  WCI - WIND CHILL INDEX
   HX - HEAT INDEX
  VSB - VISIBILITY





USA.gov is the U.S. government's official web portal to all federal, state and local government web resources and services.